TimeEDT,TemperatureF,Dew PointF,Humidity,Sea Level PressureIn,VisibilityMPH,Wind Direction,Wind SpeedMPH,Gust SpeedMPH,PrecipitationIn,Events,Conditions,WindDirDegrees,DateUTC
12:54 AM,59.0,57.9,96,30.20,10.0,Calm,Calm,-,N/A,,Overcast,0,2012-10-04 04:54:00
1:16 AM,59.0,57.2,94,30.20,3.0,Calm,Calm,-,0.00,Rain,Light Rain,0,2012-10-04 05:16:00
1:25 AM,59.0,57.2,94,30.20,2.5,Calm,Calm,-,0.00,,Overcast,0,2012-10-04 05:25:00
1:54 AM,59.0,57.9,96,30.20,2.0,Calm,Calm,-,0.00,,Overcast,0,2012-10-04 05:54:00
2:27 AM,57.2,57.2,100,30.18,1.8,Calm,Calm,-,N/A,,Overcast,0,2012-10-04 06:27:00
2:52 AM,57.2,57.2,100,30.17,2.0,Calm,Calm,-,0.01,,Overcast,0,2012-10-04 06:52:00
2:54 AM,57.9,57.9,100,30.18,2.0,Calm,Calm,-,0.01,,Overcast,0,2012-10-04 06:54:00
3:24 AM,57.2,57.2,100,30.18,3.0,Calm,Calm,-,N/A,,Overcast,0,2012-10-04 07:24:00
3:40 AM,57.2,57.2,100,30.18,2.0,Calm,Calm,-,N/A,,Overcast,0,2012-10-04 07:40:00
3:47 AM,57.2,57.2,100,30.18,1.8,Calm,Calm,-,N/A,,Overcast,0,2012-10-04 07:47:00
3:54 AM,57.9,57.9,100,30.18,2.5,Calm,Calm,-,N/A,,Overcast,0,2012-10-04 07:54:00
4:43 AM,57.2,57.2,100,30.18,3.0,Calm,Calm,-,N/A,,Overcast,0,2012-10-04 08:43:00
4:54 AM,57.9,57.9,100,30.19,3.0,Calm,Calm,-,N/A,,Overcast,0,2012-10-04 08:54:00
5:03 AM,57.2,57.2,100,30.18,2.5,Calm,Calm,-,0.00,Rain,Light Rain,0,2012-10-04 09:03:00
5:22 AM,59.0,57.2,94,30.19,4.0,Calm,Calm,-,0.00,,Overcast,0,2012-10-04 09:22:00
5:54 AM,57.9,57.9,100,30.19,5.0,Calm,Calm,-,0.00,,Overcast,0,2012-10-04 09:54:00
6:54 AM,59.0,57.9,96,30.19,10.0,Calm,Calm,-,N/A,,Overcast,0,2012-10-04 10:54:00
7:54 AM,59.0,57.9,96,30.19,9.0,ENE,3.5,-,N/A,,Overcast,60,2012-10-04 11:54:00
8:42 AM,59.0,57.2,94,30.19,2.0,NNE,3.5,-,N/A,,Overcast,30,2012-10-04 12:42:00
8:52 AM,59.0,57.2,94,30.19,1.8,Calm,Calm,-,0.00,Rain,Light Rain,0,2012-10-04 12:52:00
8:54 AM,59.0,57.9,96,30.19,1.8,Calm,Calm,-,0.00,Rain,Light Rain,0,2012-10-04 12:54:00
9:02 AM,59.0,57.2,94,30.18,2.0,NE,4.6,-,0.01,,Overcast,40,2012-10-04 13:02:00
9:16 AM,59.0,59.0,100,30.18,3.0,Calm,Calm,-,0.01,,Overcast,0,2012-10-04 13:16:00
9:49 AM,59.0,59.0,100,30.19,3.0,Calm,Calm,-,0.01,,Overcast,0,2012-10-04 13:49:00
9:54 AM,59.0,59.0,100,30.19,4.0,Calm,Calm,-,0.01,,Overcast,0,2012-10-04 13:54:00
10:09 AM,59.0,59.0,100,30.18,7.0,ENE,3.5,-,N/A,,Overcast,60,2012-10-04 14:09:00
10:24 AM,60.8,59.0,94,30.19,10.0,Calm,Calm,-,N/A,,Overcast,0,2012-10-04 14:24:00
10:33 AM,60.8,59.0,94,30.18,10.0,Calm,Calm,-,N/A,,Overcast,0,2012-10-04 14:33:00
10:51 AM,59.0,59.0,100,30.17,1.8,Calm,Calm,-,0.00,Rain,Light Rain,0,2012-10-04 14:51:00
10:54 AM,59.0,59.0,100,30.18,1.5,Calm,Calm,-,0.00,Rain,Light Rain,0,2012-10-04 14:54:00
11:07 AM,59.0,59.0,100,30.18,2.0,Calm,Calm,-,0.00,,Overcast,0,2012-10-04 15:07:00
11:15 AM,59.0,57.2,94,30.17,1.5,Calm,Calm,-,0.00,Rain,Light Rain,0,2012-10-04 15:15:00
11:46 AM,59.0,59.0,100,30.17,2.0,Calm,Calm,-,0.02,Rain,Light Rain,0,2012-10-04 15:46:00
11:54 AM,60.1,59.0,96,30.18,2.5,Calm,Calm,-,0.03,Rain,Light Rain,0,2012-10-04 15:54:00
11:58 AM,60.8,59.0,94,30.17,4.0,Calm,Calm,-,0.00,Rain,Light Rain,0,2012-10-04 15:58:00
12:24 PM,60.8,59.0,94,30.16,2.0,Calm,Calm,-,0.05,Rain,Rain,0,2012-10-04 16:24:00
12:36 PM,60.8,59.0,94,30.16,6.0,Calm,Calm,-,0.06,Rain,Light Rain,0,2012-10-04 16:36:00
12:54 PM,60.1,59.0,96,30.15,10.0,Calm,Calm,-,0.06,,Overcast,0,2012-10-04 16:54:00
1:03 PM,60.8,59.0,94,30.14,10.0,Calm,Calm,-,N/A,,Overcast,0,2012-10-04 17:03:00
1:29 PM,60.8,59.0,94,30.13,10.0,ESE,3.5,-,N/A,,Overcast,120,2012-10-04 17:29:00
1:51 PM,60.8,59.0,94,30.12,6.0,Calm,Calm,-,0.00,,Overcast,0,2012-10-04 17:51:00
1:54 PM,60.1,59.0,96,30.12,5.0,Calm,Calm,-,0.00,,Overcast,0,2012-10-04 17:54:00
2:18 PM,60.8,59.0,94,30.12,9.0,Calm,Calm,-,0.00,Rain,Light Rain,0,2012-10-04 18:18:00
2:33 PM,60.8,59.0,94,30.12,3.0,Calm,Calm,-,0.03,Rain,Rain,0,2012-10-04 18:33:00
2:52 PM,60.8,59.0,94,30.11,3.0,Calm,Calm,-,0.09,Rain,Rain,0,2012-10-04 18:52:00
2:54 PM,60.1,59.0,96,30.11,2.0,Calm,Calm,-,0.11,Rain,Heavy Rain,0,2012-10-04 18:54:00
2:56 PM,60.8,59.0,94,30.11,1.2,Calm,Calm,-,0.04,Rain,Heavy Rain,0,2012-10-04 18:56:00
3:07 PM,60.8,59.0,94,30.10,2.0,ESE,3.5,-,0.09,Rain,Rain,120,2012-10-04 19:07:00
3:16 PM,60.8,59.0,94,30.10,5.0,Calm,Calm,-,0.11,Rain,Light Rain,0,2012-10-04 19:16:00
3:28 PM,60.8,59.0,94,30.10,6.0,Calm,Calm,-,0.12,Rain,Light Rain,0,2012-10-04 19:28:00
3:54 PM,60.1,59.0,96,30.09,10.0,ESE,3.5,-,0.13,Rain,Light Rain,110,2012-10-04 19:54:00
4:20 PM,60.8,59.0,94,30.09,10.0,Calm,Calm,-,0.02,Rain,Light Rain,0,2012-10-04 20:20:00
4:31 PM,60.8,59.0,94,30.09,10.0,Calm,Calm,-,0.02,Rain,Light Rain,0,2012-10-04 20:31:00
4:45 PM,60.8,59.0,94,30.08,10.0,Calm,Calm,-,0.02,,Overcast,0,2012-10-04 20:45:00
4:54 PM,60.1,59.0,96,30.09,10.0,Calm,Calm,-,0.02,Rain,Light Rain,0,2012-10-04 20:54:00
5:39 PM,60.8,59.0,94,30.08,10.0,Calm,Calm,-,0.00,,Overcast,0,2012-10-04 21:39:00
5:54 PM,60.1,59.0,96,30.07,10.0,Calm,Calm,-,0.00,,Overcast,0,2012-10-04 21:54:00
6:54 PM,60.1,57.9,93,30.08,10.0,Calm,Calm,-,N/A,,Overcast,0,2012-10-04 22:54:00
7:32 PM,59.0,59.0,100,30.05,10.0,Calm,Calm,-,N/A,,Overcast,0,2012-10-04 23:32:00
7:54 PM,59.0,59.0,100,30.06,10.0,Calm,Calm,-,N/A,,Overcast,0,2012-10-04 23:54:00
8:07 PM,59.0,59.0,100,30.04,8.0,Calm,Calm,-,N/A,,Overcast,0,2012-10-05 00:07:00
8:25 PM,59.0,59.0,100,30.04,10.0,Calm,Calm,-,N/A,,Overcast,0,2012-10-05 00:25:00
8:38 PM,59.0,59.0,100,30.04,10.0,Calm,Calm,-,N/A,,Overcast,0,2012-10-05 00:38:00
8:47 PM,59.0,59.0,100,30.05,10.0,Calm,Calm,-,N/A,,Overcast,0,2012-10-05 00:47:00
8:54 PM,59.0,59.0,100,30.05,10.0,Calm,Calm,-,N/A,,Overcast,0,2012-10-05 00:54:00
9:54 PM,59.0,57.9,96,30.05,3.0,Calm,Calm,-,N/A,,Overcast,0,2012-10-05 01:54:00
10:01 PM,59.0,59.0,100,30.05,2.5,ESE,3.5,-,N/A,,Overcast,120,2012-10-05 02:01:00
10:54 PM,59.0,57.9,96,30.05,4.0,South,3.5,-,0.01,,Overcast,170,2012-10-05 02:54:00
11:28 PM,59.0,57.2,94,30.04,5.0,Calm,Calm,-,N/A,,Overcast,0,2012-10-05 03:28:00
11:36 PM,59.0,57.2,94,30.03,7.0,Calm,Calm,-,N/A,,Overcast,0,2012-10-05 03:36:00
11:54 PM,59.0,57.9,96,30.04,10.0,Calm,Calm,-,N/A,,Overcast,0,2012-10-05 03:54:00